Location: Champseau
(45.8333°N, 1.7667°E)
Time: 17:34:50
(UTC+00:00)

STRAND 1 - Pass Details

Date: 03 December 2021
Orbit: 768 x 780 km, 98.4° (Epoch: 23 January)

Event Time Altitude Azimuth Distance (km) Brightness Sun altitude
Rises 06:23:39 0° 175° (S) 3,245 ? -9.0°
Reaches altitude 10° 06:25:59 10° 179° (S) 2,321 ? -8.6°
Maximum altitude 06:31:02 60° 259° (WSW) 886 ? -7.8°
Drops below altitude 10° 06:36:07 10° 339° (NNW) 2,329 ? -7.0°
Sets 06:38:29 0° 343° (NNW) 3,259 ? -6.6°
